Change the Weather History Date:

Tuesday, February 21, 2012

  Actual Average Record
Temperature  
Mean Temperature 34 °F -  
Max Temperature 54 °F - - ()
Min Temperature 15 °F - - ()
Degree Days  
Heating Degree Days 30    
Moisture  
Dew Point 16 °F    
Average Humidity 55    
Maximum Humidity 100    
Minimum Humidity 15    
Precipitation  
Precipitation 0.00 in 0.04 in - ()
Sea Level Pressure  
Sea Level Pressure 30.34 in    
Wind  
Wind Speed 2 mph ()    
Max Wind Speed 8 mph    
Max Gust Speed -    
Visibility 12.0 miles    
Events      
T = Trace of Precipitation, MM = Missing Value Source: Averaged Metar Reports

Daily Weather History Graph

Daily Weather History Graph

Search for Another Location

Airport or City:

Trip Planner

Search our weather history database for the weather conditions in past years. The results will help you decide how hot, cold, wet, or windy it might be!

Date:

Astronomy

Feb. 21, 2012 Rise Set
Actual Time 8:09 AM CET 7:02 PM CET
Civil Twilight 7:41 AM CET 7:30 PM CET
Nautical Twilight 7:09 AM CET 8:02 PM CET
Astronomical Twilight 6:37 AM CET 8:34 PM CET
Moon 7:30 AM CET (2/21) 6:55 PM CET (2/21)
Length of Visible Light 11h 49m
Length of Day
10h 53m
Waning Crescent, 0% of the Moon is Illuminated
Feb 21
Waning Crescent
Feb 21
New
Mar 1
First Quarter
Mar 8
Full
Mar 15
Last Quarter

Hourly Weather History & Observations

Time (CET) Temp. Windchill Dew Point Humidity Pressure Visibility Wind Dir Wind Speed Gust Speed Precip Events Conditions
12:00 AM 26.6 °F - 19.4 °F 74% 30.36 in - Calm Calm - N/A   Clear
1:00 AM 24 °F - 19 °F 72%  in 12 mi Calm Calm - -   Clear
1:00 AM 23.0 °F - 19.4 °F 86% 30.36 in - Calm Calm - N/A   Clear
2:00 AM 23.0 °F - 19.4 °F 86% 30.36 in - Calm Calm - N/A   Clear
3:00 AM 19.4 °F - 15.8 °F 86% 30.33 in - Calm Calm - N/A   Clear
4:00 AM 19.4 °F - 15.8 °F 86% 30.33 in - Calm Calm - N/A   Clear
5:00 AM 17.6 °F - 15.8 °F 93% 30.33 in - Calm Calm - N/A   Clear
6:00 AM 19.4 °F - 17.6 °F 93% 30.33 in - Calm Calm - N/A   Clear
7:00 AM 17.6 °F 12.3 °F 15.8 °F 93% 30.33 in - SSE 3.5 mph - N/A   Clear
7:30 AM 15.8 °F - 14.0 °F 93% 30.33 in - Variable 2.3 mph - N/A   Clear
8:00 AM 15.8 °F - 15.8 °F 100% 30.33 in - Variable 2.3 mph - N/A   Clear
8:30 AM 17.6 °F - 15.8 °F 93% 30.33 in - Calm Calm - N/A   Clear
9:00 AM 21.2 °F - 17.6 °F 86% 30.36 in - Calm Calm - N/A   Clear
9:30 AM 24.8 °F - 19.4 °F 80% 30.36 in - Calm Calm - N/A   Clear
10:00 AM 26.6 °F - 21.2 °F 80% 30.36 in - Calm Calm - N/A   Clear
10:30 AM 28.4 °F - 23.0 °F 80% 30.36 in - Calm Calm - N/A   Clear
11:00 AM 33.8 °F - 23.0 °F 65% 30.39 in - Calm Calm - N/A   Clear
11:30 AM 35.6 °F - 23.0 °F 60% 30.39 in - Variable 1.2 mph - N/A   Clear
12:00 PM 41.0 °F 37.1 °F 19.4 °F 42% 30.39 in - East 5.8 mph - N/A   Clear
12:30 PM 41.0 °F 35.8 °F 15.8 °F 36% 30.39 in - East 8.1 mph - N/A   Clear
1:00 PM 44.6 °F 40.2 °F 14.0 °F 29% 30.36 in - ENE 8.1 mph - N/A   Clear
1:30 PM 46.4 °F 42.4 °F 12.2 °F 25% 30.36 in - East 8.1 mph - N/A   Clear
2:00 PM 48.2 °F - 12.2 °F 24% 30.33 in - ENE 8.1 mph - N/A   Clear
2:30 PM 50.0 °F - 8.6 °F 19% 30.33 in - ENE 8.1 mph - N/A   Clear
3:00 PM 50.0 °F - 10.4 °F 20% 30.33 in - ENE 6.9 mph - N/A   Clear
3:30 PM 51.8 °F - 10.4 °F 19% 30.33 in - East 6.9 mph - N/A   Clear
4:00 PM 51.8 °F - 10.4 °F 19% 30.30 in - NE 4.6 mph - N/A   Clear
4:30 PM 51.8 °F - 8.6 °F 18% 30.30 in - East 6.9 mph - N/A   Clear
5:00 PM 51.8 °F - 8.6 °F 18% 30.30 in - ENE 3.5 mph - N/A   Clear
5:30 PM 51.8 °F - 10.4 °F 19% 30.30 in - NNE 4.6 mph - N/A   Clear
6:00 PM 51.8 °F - 12.2 °F 21% 30.30 in - NE 4.6 mph - N/A   Clear
6:30 PM 48.2 °F - 14.0 °F 25% 30.30 in - NNE 5.8 mph - N/A   Clear
7:00 PM 47 °F - 15 °F 15%  in 12 mi NNE 2.3 mph - -   Clear
7:00 PM 46.4 °F - 14.0 °F 27% 30.30 in - Variable 2.3 mph - N/A   Clear
8:00 PM 41.0 °F - 15.8 °F 36% 30.33 in - Variable 1.2 mph - N/A   Clear
9:00 PM 33.8 °F - 17.6 °F 52% 30.33 in - Calm Calm - N/A   Clear
10:00 PM 30.2 °F - 19.4 °F 64% 30.36 in - Variable 1.2 mph - N/A   Clear
11:00 PM 28.4 °F - 19.4 °F 69% 30.36 in - Variable 1.2 mph - N/A   Clear